EW9451 Weather Reports


Display with metric or nautical units.
time (UTC)temp
F
wind
direction
speed
MPH
gust
MPH
rain 1hr
in
rain 24hr
in
rain mn
in
humidity
%
barometer
mb
20260510000555 49 141 3.0 8.0 0.00 0.00 0.00 82 1003.0
20260510000113 49 109 3.0 7.0 0.00 0.00 0.00 81 1003.0
20260509235556 49 131 2.0 5.0 0.00 0.00 0.00 81 1002.9
20260509235055 50 117 2.0 9.0 0.00 0.00 0.00 80 1002.9
20260509234605 50 131 3.0 9.0 0.00 0.00 0.00 80 1002.9
20260509234058 50 138 2.0 7.0 0.00 0.00 0.00 79 1002.9
20260509233554 50 132 2.0 7.0 0.00 0.00 0.00 79 1003.0
20260509233055 51 138 2.0 12.0 0.00 0.00 0.00 78 1002.9
20260509232555 51 188 4.0 12.0 0.00 0.00 0.00 78 1002.8
20260509232054 51 121 2.0 13.0 0.00 0.00 0.00 78 1002.7
20260509231553 51 134 6.0 13.0 0.00 0.00 0.00 78 1002.8
20260509231053 50 206 4.0 12.0 0.00 0.00 0.00 78 1002.9
20260509230553 50 130 1.0 9.0 0.00 0.00 0.00 78 1002.8
20260509230052 50 126 4.0 9.0 0.00 0.00 0.00 78 1002.8
20260509225552 50 132 2.0 9.0 0.00 0.00 0.00 78 1002.8
20260509225051 50 137 3.0 9.0 0.00 0.00 0.00 77 1002.9
20260509224552 50 181 3.0 8.0 0.00 0.00 0.00 77 1002.9
20260509224053 51 171 3.0 11.0 0.00 0.00 0.00 77 1002.9
20260509223549 51 165 2.0 11.0 0.00 0.00 0.00 77 1002.9
20260509223050 51 138 4.0 9.0 0.00 0.00 0.00 76 1003.0
20260509222549 51 118 4.0 12.0 0.00 0.00 0.00 77 1003.0
20260509222048 51 133 4.0 13.0 0.00 0.00 0.00 76 1003.0
20260509221604 51 134 4.0 9.0 0.00 0.00 0.00 76 1003.1
20260509221048 52 149 3.0 6.0 0.00 0.00 0.00 76 1003.1
20260509220550 52 147 2.0 11.0 0.00 0.00 0.00 76 1003.2
20260509220059 52 142 2.0 11.0 0.00 0.00 0.00 76 1003.0
20260509215546 51 111 4.0 11.0 0.00 0.00 0.00 76 1003.0
20260509215046 51 108 3.0 15.0 0.00 0.00 0.00 76 1003.1
20260509214545 52 140 5.0 15.0 0.00 0.00 0.00 75 1003.0
20260509214045 52 138 4.0 14.0 0.00 0.00 0.00 76 1003.2
20260509213545 51 144 3.0 12.0 0.00 0.00 0.00 76 1003.2
20260509213045 51 132 4.0 14.0 0.00 0.00 0.00 76 1003.3
20260509212545 51 128 4.0 19.0 0.00 0.00 0.00 76 1003.2
20260509212046 51 159 4.0 19.0 0.00 0.00 0.00 76 1003.2
20260509211546 51 132 4.0 11.0 0.00 0.00 0.00 76 1003.2
20260509211045 51 130 4.0 13.0 0.00 0.00 0.00 75 1003.3
20260509210543 51 120 5.0 13.0 0.00 0.00 0.00 75 1003.4
20260509210049 52 169 4.0 12.0 0.00 0.00 0.00 75 1003.4
20260509205541 52 134 7.0 16.0 0.00 0.00 0.00 74 1003.4
20260509205041 52 121 5.0 16.0 0.00 0.00 0.00 74 1003.4
20260509204541 51 164 4.0 10.0 0.00 0.00 0.00 74 1003.4
20260509204041 51 153 4.0 14.0 0.00 0.00 0.00 74 1003.4
20260509203541 51 168 6.0 15.0 0.00 0.00 0.00 75 1003.5
20260509203045 52 198 5.0 12.0 0.00 0.00 0.00 74 1003.6
20260509202540 52 130 4.0 10.0 0.00 0.00 0.00 72 1003.6
20260509202043 52 164 5.0 10.0 0.00 0.00 0.00 72 1003.6
20260509201541 53 209 4.0 13.0 0.00 0.00 0.00 70 1003.7
20260509201039 53 133 4.0 13.0 0.00 0.00 0.00 70 1003.7
20260509200539 54 159 3.0 11.0 0.00 0.00 0.00 69 1003.6
20260509200043 54 83 4.0 11.0 0.00 0.00 0.00 69 1003.6
20260509195539 54 150 5.0 9.0 0.00 0.00 0.00 67 1003.6
20260509195041 54 138 3.0 7.0 0.00 0.00 0.00 70 1003.5
20260509194538 54 127 2.0 8.0 0.00 0.00 0.00 71 1003.6
20260509194037 54 130 4.0 9.0 0.00 0.00 0.00 71 1003.6
20260509193539 54 177 2.0 9.0 0.00 0.00 0.00 72 1003.6
20260509193044 53 129 4.0 9.0 0.00 0.00 0.00 71 1003.6
20260509192537 53 105 5.0 10.0 0.00 0.00 0.00 73 1003.6
20260509192045 53 173 5.0 9.0 0.00 0.00 0.00 74 1003.7
20260509191543 52 142 4.0 9.0 0.00 0.00 0.00 75 1003.8
20260509191035 52 135 4.0 7.0 0.00 0.00 0.00 74 1003.9
20260509190537 52 133 4.0 7.0 0.00 0.00 0.00 75 1003.9
20260509190043 52 148 3.0 7.0 0.00 0.00 0.00 74 1004.0
20260509185533 51 126 4.0 7.0 0.00 0.00 0.00 75 1004.1
20260509185032 51 142 3.0 14.0 0.00 0.00 0.00 76 1004.2
20260509184536 52 134 6.0 14.0 0.00 0.00 0.00 73 1004.3
20260509184031 52 126 4.0 7.0 0.00 0.00 0.00 74 1004.4
20260509183534 53 158 4.0 10.0 0.00 0.00 0.00 73 1004.5
20260509183038 53 162 3.0 9.0 0.00 0.00 0.00 71 1004.5
20260509182530 54 128 4.0 10.0 0.00 0.00 0.00 65 1004.5
20260509182031 54 134 4.0 11.0 0.00 0.00 0.00 65 1004.5
20260509181529 55 123 6.0 11.0 0.00 0.00 0.00 62 1004.4
20260509181032 55 138 4.0 11.0 0.00 0.00 0.00 61 1004.4
20260509180529 56 111 5.0 10.0 0.00 0.00 0.00 59 1004.4
20260509180028 56 134 5.0 12.0 0.00 0.00 0.00 58 1004.3
20260509175527 56 133 6.0 12.0 0.00 0.00 0.00 56 1004.4
20260509175028 57 115 6.0 12.0 0.00 0.00 0.00 54 1004.3
20260509174528 58 131 7.0 10.0 0.00 0.00 0.00 51 1004.3
20260509174027 58 136 4.0 9.0 0.00 0.00 0.00 52 1004.3
20260509173526 59 136 4.0 8.0 0.00 0.00 0.00 49 1004.4
20260509173031 59 140 2.0 9.0 0.00 0.00 0.00 47 1004.4
20260509172526 59 134 3.0 10.0 0.00 0.00 0.00 44 1004.4
20260509172026 59 145 3.0 10.0 0.00 0.00 0.00 43 1004.4
20260509171530 59 176 5.0 10.0 0.00 0.00 0.00 42 1004.3
20260509171027 59 151 4.0 15.0 0.00 0.00 0.00 41 1004.4
20260509170527 60 144 6.0 15.0 0.00 0.00 0.00 39 1004.4
20260509170029 60 175 4.0 12.0 0.00 0.00 0.00 40 1004.4
20260509165523 60 186 5.0 13.0 0.00 0.00 0.00 40 1004.5
20260509165022 60 53 5.0 12.0 0.00 0.00 0.00 39 1004.5
20260509164522 60 126 3.0 12.0 0.00 0.00 0.00 40 1004.6
20260509164026 60 130 4.0 9.0 0.00 0.00 0.00 39 1004.6
20260509163522 60 90 3.0 8.0 0.00 0.00 0.00 36 1004.7
20260509163020 59 174 4.0 12.0 0.00 0.00 0.00 38 1004.7
20260509162523 59 199 5.0 12.0 0.00 0.00 0.00 35 1004.8
20260509162022 60 84 5.0 10.0 0.00 0.00 0.00 34 1004.8
20260509161520 60 152 3.0 8.0 0.00 0.00 0.00 34 1004.8
20260509161018 60 115 3.0 10.0 0.00 0.00 0.00 33 1005.0
20260509160518 61 144 5.0 11.0 0.00 0.00 0.00 34 1005.1
20260509160019 60 169 4.0 11.0 0.00 0.00 0.00 35 1005.2
20260509155515 60 109 1.0 6.0 0.00 0.00 0.00 37 1005.2
20260509155019 59 63 2.0 9.0 0.00 0.00 0.00 39 1005.2
20260509154514 58 15 2.0 14.0 0.00 0.00 0.00 37 1005.3
20260509154013 58 219 4.0 14.0 0.00 0.00 0.00 35 1005.4
20260509153511 59 277 2.0 9.0 0.00 0.00 0.00 37 1005.6
20260509153013 59 233 3.0 10.0 0.00 0.00 0.00 36 1005.6
20260509152511 59 150 5.0 10.0 0.00 0.00 0.00 36 1005.8
20260509152011 59 154 5.0 9.0 0.00 0.00 0.00 36 1005.8
20260509151510 59 123 2.0 9.0 0.00 0.00 0.00 38 1005.9
20260509151008 58 133 1.0 9.0 0.00 0.00 0.00 38 1005.8
20260509150507 58 139 3.0 7.0 0.00 0.00 0.00 36 1005.9
20260509150007 58 211 1.0 4.0 0.00 0.00 0.00 37 1005.8
20260509145506 58 263 1.0 8.0 0.00 0.00 0.00 38 1005.9
20260509145008 57 120 1.0 8.0 0.00 0.00 0.00 38 1005.9
20260509144505 57 255 1.0 7.0 0.00 0.00 0.00 37 1006.0
20260509144004 57 144 1.0 8.0 0.00 0.00 0.00 39 1006.1
20260509143501 56 315 1.0 8.0 0.00 0.00 0.00 38 1006.1
20260509143000 56 258 3.0 14.0 0.00 0.00 0.00 39 1006.1
20260509142600 56 157 2.0 14.0 0.00 0.00 0.00 39 1006.2
20260509142059 56 144 5.0 11.0 0.00 0.00 0.00 38 1006.1
20260509141559 56 281 2.0 8.0 0.00 0.00 0.00 39 1006.3
20260509141100 55 218 2.0 8.0 0.00 0.00 0.00 40 1006.2
20260509140558 55 277 3.0 8.0 0.00 0.00 0.00 41 1006.3
20260509140057 55 36 1.0 6.0 0.00 0.00 0.00 43 1006.2
20260509135559 54 161 1.0 10.0 0.00 0.00 0.00 43 1006.3
20260509135056 54 325 1.0 10.0 0.00 0.00 0.00 42 1006.3
20260509134607 54 189 2.0 7.0 0.00 0.00 0.00 42 1006.4
20260509134056 54 273 3.0 9.0 0.00 0.00 0.00 42 1006.2
20260509133555 54 235 2.0 9.0 0.00 0.00 0.00 42 1006.2
20260509133055 54 333 3.0 8.0 0.00 0.00 0.00 42 1006.3
20260509132555 54 238 3.0 9.0 0.00 0.00 0.00 41 1006.3
20260509132057 55 275 2.0 12.0 0.00 0.00 0.00 42 1006.4
20260509131622 54 205 3.0 12.0 0.00 0.00 0.00 41 1006.5
20260509131053 54 242 1.0 12.0 0.00 0.00 0.00 42 1006.6
20260509130552 53 234 5.0 11.0 0.00 0.00 0.00 41 1006.6
20260509125549 53 257 3.0 11.0 0.00 0.00 0.00 42 1006.6
20260509125051 53 244 3.0 8.0 0.00 0.00 0.00 45 1006.7
20260509124549 52 254 2.0 6.0 0.00 0.00 0.00 46 1006.8
20260509124045 51 181 1.0 5.0 0.00 0.00 0.00 50 1006.8
20260509123544 51 292 1.0 8.0 0.00 0.00 0.00 50 1006.8
20260509123050 50 175 3.0 8.0 0.00 0.00 0.00 50 1006.8
20260509122541 50 304 2.0 4.0 0.00 0.00 0.00 51 1006.9
20260509122040 49 149 1.0 4.0 0.00 0.00 0.00 50 1006.9
20260509121541 48 154 1.0 6.0 0.00 0.00 0.00 50 1006.9
20260509121040 48 302 1.0 6.0 0.00 0.00 0.00 53 1006.9
20260509120538 47 274 1.0 3.0 0.00 0.00 0.00 52 1006.9
20260509120035 47 207 0.0 3.0 0.00 0.00 0.00 53 1006.9
20260509115534 46 220 0.0 4.0 0.00 0.00 0.00 55 1006.9
20260509115034 45 136 1.0 4.0 0.00 0.00 0.00 56 1007.0
20260509114531 45 173 0.0 8.0 0.00 0.00 0.00 57 1007.0
20260509114030 44 183 2.0 8.0 0.00 0.00 0.00 59 1006.9
20260509113531 43 172 0.0 3.0 0.00 0.00 0.00 60 1007.0
20260509113026 42 141 1.0 3.0 0.00 0.00 0.00 63 1007.0
20260509112525 42 247 0.0 2.0 0.00 0.00 0.00 65 1007.0
20260509112024 41 302 0.0 1.0 0.00 0.00 0.00 60 1007.0
20260509111524 41 302 0.0 1.0 0.00 0.00 0.00 61 1007.0
20260509111023 41 302 0.0 1.0 0.00 0.00 0.00 61 1006.9
20260509110526 40 302 0.0 1.0 0.00 0.00 0.00 59 1006.9
20260509110025 40 302 0.0 1.0 0.00 0.00 0.00 61 1006.9
20260509105520 40 302 0.0 1.0 0.00 0.00 0.00 61 1006.9
20260509105022 39 302 0.0 1.0 0.00 0.00 0.00 61 1007.0
20260509104518 39 302 0.0 0.0 0.00 0.00 0.00 62 1007.0
20260509104017 39 302 0.0 0.0 0.00 0.00 0.00 63 1006.9
20260509103515 39 302 0.0 0.0 0.00 0.00 0.00 63 1006.7
20260509103015 38 302 0.0 0.0 0.00 0.00 0.00 64 1006.7
20260509102515 38 302 0.0 0.0 0.00 0.00 0.00 64 1006.7
20260509102015 38 302 0.0 0.0 0.00 0.00 0.00 65 1006.7
20260509101520 37 302 0.0 0.0 0.00 0.00 0.00 64 1006.7
20260509101013 37 302 0.0 2.0 0.00 0.00 0.00 65 1006.8
20260509100513 37 302 0.0 2.0 0.00 0.00 0.00 66 1006.7
20260509100013 37 302 0.0 2.0 0.00 0.00 0.00 65 1006.7
20260509095513 37 302 0.0 0.0 0.00 0.00 0.00 65 1006.6
20260509095013 37 302 0.0 0.0 0.00 0.00 0.00 65 1006.5
20260509094514 37 302 0.0 1.0 0.00 0.00 0.00 65 1006.5
20260509094014 37 302 0.0 1.0 0.00 0.00 0.00 65 1006.4
20260509093512 38 302 0.0 1.0 0.00 0.00 0.00 66 1006.4
20260509093019 38 302 0.0 0.0 0.00 0.00 0.00 66 1006.3
20260509092511 38 302 0.0 0.0 0.00 0.00 0.00 65 1006.3
20260509092011 38 302 0.0 1.0 0.00 0.00 0.00 66 1006.3
20260509091511 38 302 0.0 1.0 0.00 0.00 0.00 65 1006.2
20260509091011 38 302 0.0 0.0 0.00 0.00 0.00 65 1006.3
20260509090511 38 302 0.0 0.0 0.00 0.00 0.00 66 1006.2
20260509090011 38 302 0.0 0.0 0.00 0.00 0.00 64 1006.3
20260509085509 38 302 0.0 0.0 0.00 0.00 0.00 64 1006.3
20260509085008 38 302 0.0 1.0 0.00 0.00 0.00 65 1006.2
20260509084513 38 302 0.0 1.0 0.00 0.00 0.00 65 1006.3
20260509084007 38 302 0.0 1.0 0.00 0.00 0.00 66 1006.2
20260509083507 38 302 0.0 1.0 0.00 0.00 0.00 67 1006.2
20260509083005 38 302 0.0 2.0 0.00 0.00 0.00 67 1006.2
20260509082504 38 302 0.0 2.0 0.00 0.00 0.00 67 1006.2
20260509082006 38 208 0.0 1.0 0.00 0.00 0.00 66 1006.2
20260509081508 38 208 0.0 1.0 0.00 0.00 0.00 67 1006.2
20260509081006 37 208 0.0 1.0 0.00 0.00 0.00 67 1006.2
20260509080502 37 209 0.0 2.0 0.00 0.00 0.00 67 1006.3
20260509080003 37 209 0.0 2.0 0.00 0.00 0.00 68 1006.4
20260509075503 37 305 0.0 0.0 0.00 0.00 0.00 67 1006.4
20260509075001 37 305 0.0 0.0 0.00 0.00 0.00 68 1006.4
20260509074502 38 305 0.0 0.0 0.00 0.00 0.00 67 1006.4
20260509074000 38 305 0.0 0.0 0.00 0.00 0.00 68 1006.4
20260509073600 37 305 0.0 0.0 0.00 0.00 0.00 67 1006.4
20260509073500 37 305 0.0 0.0 0.00 0.00 0.00 67 1006.5
20260509073102 38 305 0.0 0.0 0.00 0.00 0.00 67 1006.5
20260509072600 38 305 0.0 0.0 0.00 0.00 0.00 67 1006.5
20260509072100 37 305 0.0 0.0 0.00 0.00 0.00 67 1006.5
20260509071616 37 305 0.0 0.0 0.00 0.00 0.00 67 1006.5
20260509071059 37 305 0.0 0.0 0.00 0.00 0.00 67 1006.6
20260509070559 37 305 0.0 0.0 0.00 0.00 0.00 67 1006.5
20260509070107 37 305 0.0 0.0 0.00 0.00 0.00 67 1006.5
20260509065558 37 305 0.0 0.0 0.00 0.00 0.00 67 1006.5
20260509065057 37 305 0.0 0.0 0.00 0.00 0.00 67 1006.5
20260509064558 37 305 0.0 0.0 0.00 0.00 0.00 68 1006.6
20260509064057 37 305 0.0 0.0 0.00 0.00 0.00 68 1006.5
20260509063558 37 305 0.0 0.0 0.00 0.00 0.00 68 1006.5
20260509063056 37 305 0.0 0.0 0.00 0.00 0.00 68 1006.5
20260509062556 37 305 0.0 0.0 0.00 0.00 0.00 68 1006.5
20260509062054 37 305 0.0 0.0 0.00 0.00 0.00 68 1006.6
20260509061607 37 305 0.0 0.0 0.00 0.00 0.00 68 1006.6
20260509061054 37 305 0.0 0.0 0.00 0.00 0.00 68 1006.6
20260509060554 37 305 0.0 0.0 0.00 0.00 0.00 68 1006.6
20260509060057 37 305 0.0 0.0 0.00 0.00 0.00 68 1006.6
20260509055553 36 305 0.0 0.0 0.00 0.00 0.00 68 1006.6
20260509055053 36 305 0.0 0.0 0.00 0.00 0.00 69 1006.6
20260509054612 36 305 0.0 0.0 0.00 0.00 0.00 68 1006.6
20260509054052 36 305 0.0 0.0 0.00 0.00 0.00 69 1006.6
20260509053552 36 305 0.0 1.0 0.00 0.00 0.00 69 1006.6
20260509053142 36 305 0.0 2.0 0.00 0.00 0.00 69 1006.6
20260509052555 36 305 0.0 2.0 0.00 0.00 0.00 69 1006.6
20260509052049 36 305 0.0 2.0 0.00 0.00 0.00 69 1006.6
20260509051553 36 305 0.0 0.0 0.00 0.00 0.00 68 1006.6
20260509051049 36 305 0.0 0.0 0.00 0.00 0.00 69 1006.5
20260509050548 37 305 0.0 0.0 0.00 0.00 0.00 68 1006.5
20260509050050 37 305 0.0 0.0 0.00 0.00 0.00 68 1006.5
20260509045547 37 305 0.0 2.0 0.00 0.00 0.00 68 1006.5
20260509045046 37 305 0.0 2.0 0.00 0.00 0.00 68 1006.5
20260509044548 37 305 0.0 0.0 0.00 0.00 0.00 68 1006.4
20260509044045 37 305 0.0 0.0 0.00 0.00 0.00 68 1006.5
20260509043547 37 305 0.0 0.0 0.00 0.00 0.00 68 1006.4
20260509043044 37 305 0.0 0.0 0.00 0.00 0.00 67 1006.4
20260509042543 37 305 0.0 0.0 0.00 0.00 0.00 68 1006.5
20260509042044 37 305 0.0 1.0 0.00 0.00 0.00 68 1006.4
20260509041543 37 305 0.0 1.0 0.00 0.00 0.00 68 1006.5
20260509041041 37 305 0.0 0.0 0.00 0.00 0.00 68 1006.4
20260509040540 37 305 0.0 1.0 0.00 0.00 0.00 68 1006.4
20260509040046 37 305 0.0 1.0 0.00 0.00 0.00 69 1006.3
20260509035542 37 305 0.0 1.0 0.00 0.00 0.00 70 1006.3
20260509035040 37 305 0.0 2.0 0.00 0.00 0.00 70 1006.2
20260509034541 37 305 0.0 2.0 0.00 0.00 0.00 71 1006.3
20260509034039 37 305 0.0 2.0 0.00 0.00 0.00 70 1006.2
20260509033539 37 305 0.0 2.0 0.00 0.00 0.00 71 1006.2
20260509033039 37 305 0.0 2.0 0.00 0.00 0.00 71 1006.2
20260509032540 37 305 0.0 2.0 0.00 0.00 0.00 72 1006.1
20260509032036 37 305 0.0 1.0 0.00 0.00 0.00 70 1006.0
20260509031537 38 305 0.0 0.0 0.00 0.00 0.00 70 1006.0
20260509031037 38 305 0.0 0.0 0.00 0.00 0.00 70 1005.9
20260509030537 38 305 0.0 0.0 0.00 0.00 0.00 69 1005.9
20260509030039 38 305 0.0 1.0 0.00 0.00 0.00 69 1006.0
20260509025536 38 305 0.0 1.0 0.00 0.00 0.00 69 1005.9
20260509025035 38 305 0.0 0.0 0.00 0.00 0.00 70 1005.8
20260509024537 38 305 0.0 0.0 0.00 0.00 0.00 71 1005.8
20260509024035 39 305 0.0 0.0 0.00 0.00 0.00 69 1005.9
20260509023537 39 305 0.0 0.0 0.00 0.00 0.00 69 1005.9
20260509023045 39 305 0.0 1.0 0.00 0.00 0.00 68 1005.9
20260509022538 39 305 0.0 1.0 0.00 0.00 0.00 68 1005.8
20260509022037 39 305 0.0 2.0 0.00 0.00 0.00 68 1005.9
20260509021534 40 305 0.0 2.0 0.00 0.00 0.00 69 1005.9
20260509021033 40 305 1.0 2.0 0.00 0.00 0.00 67 1005.8
20260509020532 40 305 0.0 1.0 0.00 0.00 0.00 68 1005.8
20260509020038 41 305 0.0 0.0 0.00 0.00 0.00 66 1005.8
20260509015532 41 305 0.0 1.0 0.00 0.00 0.00 65 1005.8
20260509015033 41 305 0.0 1.0 0.00 0.00 0.00 65 1005.7
20260509014537 41 305 0.0 0.0 0.00 0.00 0.00 64 1005.8
20260509014031 42 305 0.0 1.0 0.00 0.00 0.00 64 1005.7
20260509013532 42 305 0.0 1.0 0.00 0.00 0.00 64 1005.6
20260509013031 42 305 0.0 1.0 0.00 0.00 0.00 63 1005.6
20260509012530 42 305 0.0 0.0 0.00 0.00 0.00 64 1005.5
20260509012030 42 305 0.0 0.0 0.00 0.00 0.00 64 1005.4
20260509011532 42 305 0.0 0.0 0.00 0.00 0.00 64 1005.3
20260509011028 43 305 0.0 1.0 0.00 0.00 0.00 64 1005.2
20260509010527 43 305 0.0 1.0 0.00 0.00 0.00 65 1005.1
20260509010027 43 305 0.0 2.0 0.00 0.00 0.00 65 1005.1
20260509005526 43 305 0.0 2.0 0.00 0.00 0.00 64 1005.0
20260509005024 44 305 0.0 2.0 0.00 0.00 0.00 62 1004.9
20260509004527 44 305 0.0 0.0 0.00 0.00 0.00 62 1004.9
20260509004024 45 305 0.0 0.0 0.00 0.00 0.00 60 1004.6
20260509003522 45 305 0.0 0.0 0.00 0.00 0.00 60 1004.6
20260509003040 45 305 0.0 0.0 0.00 0.00 0.00 58 1004.6
20260509002522 45 305 0.0 0.0 0.00 0.00 0.00 57 1004.6
20260509002023 46 305 0.0 0.0 0.00 0.00 0.00 57 1004.6
20260509001522 46 305 0.0 0.0 0.00 0.00 0.00 56 1004.6
20260509001021 46 305 0.0 0.0 0.00 0.00 0.00 55 1004.5